Regional Weather Roundup
Issued by NWS Kansas City/Pleasant Hill, MO

Home | Current Version | Previous Version | Text Only | Print | Product List | Glossary On
Versions: 1 2 3 4 5 6 7 8 9 10 11 12 13 14 15 16 17 18 19 20 21 22 23 24 25 26 27 28 29 30 31 32 33 34 35 36 37 38 39 40 41 42 43 44 45 46 47 48 49 50
464
ASUS43 KEAX 192310
RWREAX

WEATHER ROUNDUP FOR EASTERN KANSAS AND NORTHWEST MISSOURI
NATIONAL WEATHER SERVICE KANSAS CITY/PLEASANT HILL MO
500 PM CST MON FEB 19 2018

KSZ040-057-103>105-MOZ028-029-037-043-200000-
...KANSAS CITY METROPOLITAN AREA...

CITY           SKY/WX    TMP DP  RH WIND       PRES   REMARKS
K.C. INTL      CLOUDY    32  29  88 NW10      29.81R WCI  24
K.C. DOWNTOWN  CLOUDY    34  30  85 NW10      29.81R WCI  26
LEES SUMMIT    CLOUDY    34  33  96 NW12      29.80R FOG     WCI  25
OLATHE - IXD   CLOUDY    33  31  92 NW12      29.81R FOG     WCI  24
OLATHE - OJC   CLOUDY    32  31  96 NW8       29.80R FOG     WCI  25
LAWRENCE       CLOUDY    34  29  82 NW10      29.82R WCI  26

$$

MOZ001>008-011>017-020>025-030>033-038>040-044>046-053-054-200000-
...NORTHERN AND CENTRAL MISSOURI...

CITY           SKY/WX    TMP DP  RH WIND       PRES   REMARKS
ST. JOSEPH     CLOUDY    29  29 100 NW10      29.82S FOG     WCI  20
MOSBY          CLOUDY    34  32  93 NW10      29.80R WCI  26
WARRENSBURG    TSTM      37  36  93 NW6       29.78R WCI  33
WHITEMAN AFB   LGT RAIN  45  45 100 NW14      29.73R
CLINTON        NOT AVBL
SEDALIA        CLOUDY    63  63 100 S13       29.74S
WARSAW         NOT AVBL
CHILLICOTHE      N/A     38  35  89 W5        29.79R WCI  34
KIRKSVILLE     CLOUDY    52  52 100 W7        29.74R FOG

$$

MOZ041-047>049-056>058-063>065-088>090-097-200000-
...EASTERN AND SOUTHERN MISSOURI...

CITY           SKY/WX    TMP DP  RH WIND       PRES   REMARKS
ST. LOUIS INTL CLOUDY    63  59  87 SE8       29.86S
SPIRIT OF STL  CLOUDY    61  61 100 E7        29.83F
COLUMBIA       CLOUDY    65  60  84 S18       29.75F
JEFFERSON CITY CLOUDY    68  59  73 S13       29.77S
ROLLA          CLOUDY    65  58  78 S18G28    29.83R
OSAGE BEACH    CLOUDY    66  59  78 S15       29.79S
SPRINGFIELD    CLOUDY    67  59  75 S21G31    29.80R
BRANSON        CLOUDY    66  57  72 S8G18     29.88R
JOPLIN         LGT RAIN  64  64 100 S12       29.75S
WEST PLAINS    CLOUDY    67  55  65 S12       29.92R

$$

IAZ060-094-KSZ022-034>040-054-083-096-NEZ052-066-093-200000-
...KANSAS...SOUTHEAST NEBRASKA AND IOWA...

CITY           SKY/WX    TMP DP  RH WIND       PRES   REMARKS
TOPEKA         CLOUDY    33  28  81 NW12      29.83R WCI  24
MANHATTAN      CLOUDY    32  22  66 VRB6      29.84S WCI  26
EMPORIA        CLOUDY    31  26  82 N12       29.81R WCI  22
CHANUTE        CLOUDY    36  35  96 N9        29.79R FOG     WCI  29
WICHITA        CLOUDY    33  25  72 N13       29.79S WCI  24
OMAHA          CLOUDY    23  20  88 NW15G23   29.84S WCI  10
LINCOLN        FLURRIES  22  19  89 N15       29.86R WCI   9
FALLS CITY     CLOUDY    26  24  92 NW12      29.83R WCI  16
LAMONI         CLOUDY    33  30  88 W12       29.77R WCI  24
DES MOINES     CLOUDY    32  30  92 NW12      29.77R FOG     WCI  23

$$





USA.gov is the U.S. government's official web portal to all federal, state and local government web resources and services.